Weather History for Frankfort, KY

Change the Weather History Date:

Saturday, March 22, 2014

  Actual Average Record
Temperature  
Mean Temperature 48 °F 47 °F  
Max Temperature 57 °F 58 °F 84 °F (1907)
Min Temperature 39 °F 36 °F 14 °F (2013)
Degree Days  
Heating Degree Days 17 18  
Month to date heating degree days 532 478  
Since 1 July heating degree days 4644 4117  
Cooling Degree Days 0 0  
Month to date cooling degree days 0 0  
Year to date cooling degree days 0 0  
Moisture  
Dew Point 31 °F    
Average Humidity 46    
Maximum Humidity 62    
Minimum Humidity 30    
Precipitation  
Precipitation 0.00 in 0.14 in 2.21 in (1952)
Month to date precipitation 1.20 3.03  
Year to date precipitation 7.40 9.58  
Sea Level Pressure  
Sea Level Pressure 30.03 in    
Wind  
Wind Speed 8 mph (NW)    
Max Wind Speed 14 mph    
Max Gust Speed 20 mph    
Visibility 10 miles    
Events      
T = Trace of Precipitation, MM = Missing Value Source: NWS Daily Summary

Daily Weather History Graph

Daily Weather History Graph

Search for Another Location

Airport:

Trip Planner

Search our weather history database for the weather conditions in past years. The results will help you decide how hot, cold, wet, or windy it might be!

Date:

Astronomy

Mar. 22, 2014 Rise Set
Actual Time 7:40 AM EDT 7:53 PM EDT
Civil Twilight 7:13 AM EDT 8:19 PM EDT
Nautical Twilight 6:42 AM EDT 8:50 PM EDT
Astronomical Twilight 6:11 AM EDT 9:22 PM EDT
Moon 1:07 AM EDT (3/22) 11:26 AM EDT (3/22)
Length of Visible Light 13h 06m
Length of Day
12h 13m
Waning Gibbous, 65% of the Moon is Illuminated
Mar 22
Waning Gibbous
Mar 23
Last Quarter
Mar 30
New
Apr 7
First Quarter
Apr 15
Full

Hourly Weather History & Observations

Time (EDT) Temp. Windchill Dew Point Humidity Pressure Visibility Wind Dir Wind Speed Gust Speed Precip Events Conditions
12:53 AM 57.0 °F - 27.0 °F 32% 29.87 in 10.0 mi SW 11.5 mph - N/A   Clear
1:53 AM 53.1 °F - 28.0 °F 38% 29.87 in 10.0 mi SSW 6.9 mph - N/A   Clear
2:53 AM 53.1 °F - 28.9 °F 40% 29.86 in 10.0 mi SSW 9.2 mph - N/A   Clear
3:53 AM 51.1 °F - 28.9 °F 43% 29.88 in 10.0 mi WSW 5.8 mph - N/A   Scattered Clouds
4:53 AM 52.0 °F - 30.9 °F 45% 29.90 in 10.0 mi West 6.9 mph - N/A   Clear
5:53 AM 53.1 °F - 34.0 °F 48% 29.92 in 10.0 mi WNW 8.1 mph - N/A   Clear
6:53 AM 48.0 °F - 33.1 °F 56% 29.96 in 10.0 mi NW 3.5 mph - N/A   Mostly Cloudy
7:53 AM 46.0 °F 43.1 °F 32.0 °F 58% 29.99 in 10.0 mi NW 5.8 mph - N/A   Clear
8:53 AM 48.9 °F - 34.0 °F 56% 30.02 in 10.0 mi NW 9.2 mph - N/A   Clear
9:53 AM 48.9 °F - 34.0 °F 56% 30.05 in 10.0 mi North 8.1 mph - N/A   Clear
10:53 AM 48.0 °F - 36.0 °F 63% 30.08 in 10.0 mi NW 11.5 mph - N/A   Clear
11:53 AM 50.0 °F - 33.1 °F 52% 30.08 in 10.0 mi WNW 8.1 mph - N/A   Clear
12:53 PM 51.1 °F - 32.0 °F 48% 30.09 in 10.0 mi NNW 9.2 mph - N/A   Clear
1:53 PM 52.0 °F - 30.0 °F 43% 30.09 in 10.0 mi Calm Calm - N/A   Clear
2:53 PM 55.0 °F - 30.9 °F 40% 30.07 in 10.0 mi Variable 6.9 mph - N/A   Clear
3:53 PM 57.0 °F - 30.9 °F 37% 30.06 in 10.0 mi NNW 11.5 mph - N/A   Clear
4:53 PM 55.9 °F - 28.9 °F 36% 30.05 in 10.0 mi WNW 8.1 mph - N/A   Clear
5:53 PM 55.9 °F - 28.9 °F 36% 30.06 in 10.0 mi NNW 6.9 mph - N/A   Clear
6:53 PM 54.0 °F - 28.9 °F 38% 30.08 in 10.0 mi WNW 5.8 mph - N/A   Clear
7:53 PM 50.0 °F - 30.0 °F 46% 30.10 in 10.0 mi NW 8.1 mph - N/A   Clear
8:53 PM 48.0 °F - 30.0 °F 50% 30.12 in 10.0 mi North 8.1 mph - N/A   Clear
9:53 PM 45.0 °F 41.2 °F 30.0 °F 56% 30.14 in 10.0 mi North 6.9 mph - N/A   Clear
10:53 PM 43.0 °F 37.2 °F 30.0 °F 60% 30.16 in 10.0 mi NNE 10.4 mph - N/A   Clear
11:53 PM 41.0 °F 35.2 °F 28.9 °F 62% 30.17 in 10.0 mi NNE 9.2 mph - N/A   Clear